DW1520 Weather Reports


time (UTC)temp
F
wind
direction
speed
knots
gust
knots
rain 1hr
in
rain 24hr
in
rain mn
in
humidity
%
barometer
mb
20260906180006 79 136 0.9 4.3 0.00 0.00 0.00 72 1016.1
20260906175506 79 161 2.6 5.2 0.00 0.00 0.00 71 1016.1
20260906175007 80 161 2.6 7.0 0.00 0.00 0.00 70 1016.1
20260906174506 80 165 1.7 4.3 0.00 0.00 0.00 70 1016.1
20260906174007 80 167 1.7 4.3 0.00 0.00 0.00 71 1016.2
20260906173007 79 167 1.7 8.7 0.00 0.00 0.00 73 1016.2
20260906172506 79 160 0.9 8.7 0.00 0.00 0.00 75 1016.3
20260906172006 78 167 2.6 7.0 0.00 0.00 0.00 73 1016.4
20260906171506 78 189 1.7 4.3 0.00 0.00 0.00 74 1016.3
20260906171007 78 158 0.9 2.6 0.00 0.00 0.00 75 1016.3
20260906170507 78 173 1.7 5.2 0.00 0.00 0.00 77 1016.3
20260906170007 77 180 0.9 6.1 0.00 0.00 0.00 77 1016.4
20260906165006 77 51 0.9 4.3 0.00 0.00 0.00 76 1016.4
20260906164506 77 179 1.7 4.3 0.00 0.00 0.00 78 1016.4
20260906164007 76 173 0.9 2.6 0.00 0.00 0.00 79 1016.4
20260906163507 76 66 0.9 2.6 0.00 0.00 0.00 80 1016.5
20260906163007 75 117 1.7 5.2 0.00 0.00 0.00 79 1016.4
20260906162007 75 153 0.9 4.3 0.00 0.00 0.00 82 1016.5
20260906161506 75 143 1.7 4.3 0.00 0.00 0.00 82 1016.4
20260906160506 74 120 0.9 2.6 0.00 0.00 0.00 81 1016.3
20260906155507 74 99 1.7 5.2 0.00 0.00 0.00 82 1016.4
20260906154006 74 175 1.7 4.3 0.00 0.00 0.00 84 1016.7
20260906153007 74 169 1.7 5.2 0.00 0.00 0.00 84 1016.6
20260906152507 73 166 0.9 2.6 0.00 0.00 0.00 84 1016.6
20260906152007 73 174 0.9 2.6 0.00 0.00 0.00 85 1016.6
20260906151506 73 175 0.0 2.6 0.00 0.00 0.00 85 1016.6
20260906151006 73 129 0.9 4.3 0.00 0.00 0.00 85 1016.5
20260906150506 73 155 0.9 2.6 0.00 0.00 0.00 86 1016.6
20260906150007 72 155 0.9 2.6 0.00 0.00 0.00 87 1016.5
20260906145506 72 145 1.7 6.1 0.00 0.00 0.00 87 1016.6
20260906145006 72 184 0.9 5.2 0.00 0.00 0.00 88 1016.5
20260906144506 71 121 1.7 4.3 0.00 0.00 0.00 88 1016.5
20260906144007 71 180 1.7 4.3 0.00 0.00 0.00 88 1016.5
20260906143506 71 202 1.7 4.3 0.00 0.00 0.00 88 1016.5
20260906142506 70 159 1.7 2.6 0.00 0.00 0.00 89 1016.3
20260906142007 70 137 0.9 2.6 0.00 0.00 0.00 89 1016.2
20260906141506 70 128 0.9 4.3 0.00 0.00 0.00 90 1016.3
20260906141006 70 163 1.7 4.3 0.00 0.00 0.00 90 1016.3
20260906140506 69 194 0.9 2.6 0.00 0.00 0.00 90 1016.4
20260906140007 69 170 0.9 4.3 0.00 0.00 0.00 90 1016.3
20260906135006 69 177 2.6 7.0 0.00 0.00 0.00 90 1016.4
20260906133506 69 184 1.7 7.0 0.00 0.00 0.00 91 1016.3
20260906133007 69 181 0.9 4.3 0.00 0.00 0.00 91 1016.4
20260906132506 69 168 0.9 2.6 0.00 0.00 0.00 91 1016.4
20260906132007 69 121 0.9 2.6 0.00 0.00 0.00 91 1016.4
20260906131506 69 153 0.0 0.9 0.00 0.00 0.00 91 1016.2
20260906131007 69 157 0.0 2.6 0.00 0.00 0.00 91 1016.1
20260906130506 69 160 1.7 5.2 0.00 0.00 0.00 91 1016.2
20260906125510 69 164 1.7 6.1 0.00 0.00 0.00 92 1016.2
20260906125007 69 161 0.0 2.6 0.00 0.00 0.00 92 1016.2
20260906124006 69 161 0.0 2.6 0.00 0.00 0.00 92 1016.0
20260906123506 69 166 0.0 4.3 0.00 0.00 0.00 92 1016.0
20260906123007 69 168 0.0 4.3 0.00 0.00 0.00 92 1016.0
20260906122506 69 156 1.7 6.1 0.00 0.00 0.00 92 1015.9
20260906121007 69 157 0.9 2.6 0.00 0.00 0.00 92 1015.8
20260906120507 69 157 0.0 1.7 0.00 0.00 0.00 92 1015.8
20260906120006 68 157 0.9 4.3 0.00 0.00 0.00 92 1015.8
20260906115506 68 168 0.9 1.7 0.00 0.00 0.00 92 1015.8
20260906115006 69 168 0.9 1.7 0.00 0.00 0.00 92 1015.8
20260906114506 69 168 1.7 4.3 0.00 0.00 0.00 92 1015.7
20260906114007 69 168 0.0 2.6 0.00 0.00 0.00 92 1015.6
20260906113506 69 168 0.0 1.7 0.00 0.00 0.00 92 1015.6
20260906112007 69 168 0.9 5.2 0.00 0.00 0.00 92 1015.7
20260906111506 69 169 0.0 1.7 0.00 0.00 0.00 92 1015.8
20260906110506 69 159 0.9 2.6 0.00 0.00 0.00 92 1015.7
20260906110007 69 158 0.9 2.6 0.00 0.00 0.00 92 1015.6
20260906105506 69 155 2.6 7.0 0.00 0.00 0.00 92 1015.5
20260906105006 69 150 0.9 2.6 0.00 0.00 0.00 92 1015.3
20260906104506 69 149 0.0 2.6 0.00 0.00 0.00 92 1015.3
20260906103506 69 149 0.9 2.6 0.00 0.00 0.00 92 1015.0
20260906102006 69 153 0.9 2.6 0.00 0.00 0.00 91 1014.8
20260906101507 69 153 0.9 2.6 0.00 0.00 0.00 91 1014.8
20260906101006 69 153 0.0 0.9 0.00 0.00 0.00 91 1014.9
20260906100506 69 153 0.0 0.9 0.00 0.00 0.00 91 1014.9
20260906095506 69 153 0.9 2.6 0.00 0.00 0.00 91 1014.8
20260906095007 69 151 0.9 2.6 0.00 0.00 0.00 91 1014.7
20260906094507 69 150 0.9 2.6 0.00 0.00 0.00 91 1014.7
20260906094007 69 164 0.0 2.6 0.00 0.00 0.00 91 1014.6
20260906093506 69 164 0.9 2.6 0.00 0.00 0.00 91 1014.7
20260906093006 69 164 0.9 2.6 0.00 0.00 0.00 91 1014.7
20260906092007 69 163 0.9 4.3 0.00 0.00 0.00 91 1014.3
20260906091506 69 169 1.7 5.2 0.00 0.00 0.00 91 1014.3
20260906090506 69 162 0.9 2.6 0.00 0.00 0.00 91 1014.2
20260906090006 69 123 0.0 1.7 0.00 0.00 0.00 90 1014.2
20260906085007 70 154 0.9 1.7 0.00 0.00 0.00 90 1014.1
20260906084507 70 94 0.0 2.6 0.00 0.00 0.00 90 1014.1
20260906084007 70 181 0.9 2.6 0.00 0.00 0.00 91 1014.1
20260906083506 70 181 0.0 0.9 0.00 0.00 0.00 91 1014.3
20260906083009 70 181 0.0 2.6 0.00 0.00 0.00 91 1014.3
20260906082506 70 208 1.7 2.6 0.00 0.00 0.00 91 1014.1
20260906082007 70 165 1.7 4.3 0.00 0.00 0.00 91 1014.1
20260906081006 70 160 1.7 4.3 0.00 0.00 0.00 91 1014.4
20260906080506 70 141 0.9 2.6 0.00 0.00 0.00 91 1014.5
20260906075506 70 155 0.9 4.3 0.00 0.00 0.00 91 1014.6
20260906075006 70 170 0.0 2.6 0.00 0.00 0.00 91 1014.7
20260906074506 70 172 0.9 1.7 0.00 0.00 0.00 91 1014.5
20260906074007 70 172 0.0 1.7 0.00 0.00 0.00 91 1014.5
20260906073506 70 172 0.0 0.0 0.00 0.00 0.00 91 1014.5
20260906073007 70 172 0.0 1.7 0.00 0.00 0.00 91 1014.5
20260906072507 70 172 0.9 2.6 0.00 0.00 0.00 91 1014.5
20260906072007 70 172 0.9 5.2 0.00 0.00 0.00 91 1014.5
20260906071507 70 172 0.0 2.6 0.00 0.00 0.00 91 1014.6
20260906071007 70 224 0.0 2.6 0.00 0.00 0.00 91 1014.7
20260906070506 70 232 0.0 4.3 0.00 0.00 0.00 91 1014.7
20260906070006 70 348 0.9 1.7 0.00 0.00 0.00 91 1014.6
20260906065506 70 348 0.9 1.7 0.00 0.00 0.00 91 1014.6
20260906065006 70 348 0.0 2.6 0.00 0.00 0.00 91 1014.7
20260906064506 70 348 1.7 2.6 0.00 0.00 0.00 91 1014.7
20260906064007 70 348 0.9 2.6 0.00 0.00 0.00 91 1014.7
20260906063506 70 348 0.0 0.9 0.00 0.00 0.00 90 1014.8
20260906063007 70 348 0.0 1.7 0.00 0.00 0.00 90 1014.9
20260906062006 70 348 0.0 0.9 0.00 0.00 0.00 90 1014.9
20260906061007 70 348 0.0 1.7 0.00 0.00 0.00 90 1014.8
20260906060006 70 348 0.0 0.0 0.00 0.00 0.00 90 1014.8
20260906055506 70 348 0.0 0.9 0.00 0.00 0.00 90 1014.9
20260906055006 70 348 0.0 1.7 0.00 0.00 0.00 90 1015.0
20260906053006 71 348 0.0 0.0 0.00 0.00 0.00 89 1015.0
20260906052506 71 348 0.0 0.0 0.00 0.00 0.00 89 1014.9
20260906051506 71 348 0.0 0.0 0.00 0.00 0.00 89 1015.0
20260906051006 72 348 0.0 0.0 0.00 0.00 0.00 88 1015.0
20260906050506 72 348 0.0 0.0 0.00 0.00 0.00 88 1014.9
20260906050006 72 348 0.0 0.0 0.00 0.00 0.00 88 1014.9
20260906045506 72 348 0.0 0.0 0.00 0.00 0.00 88 1014.9
20260906045006 72 348 0.0 0.0 0.00 0.00 0.00 88 1014.8
20260906044006 72 348 0.9 1.7 0.00 0.00 0.00 89 1014.8
20260906043006 72 348 0.0 0.9 0.00 0.00 0.00 89 1014.8
20260906042506 72 348 0.0 0.9 0.00 0.00 0.00 89 1014.8
20260906042006 72 348 0.0 0.9 0.00 0.00 0.00 89 1014.8
20260906041007 72 348 0.0 0.0 0.00 0.00 0.00 89 1014.7
20260906040507 72 348 0.0 0.9 0.00 0.00 0.00 89 1014.7
20260906040006 72 348 0.0 0.0 0.00 0.00 0.00 89 1014.7
20260906035506 72 348 0.0 0.0 0.00 0.00 0.00 89 1014.7
20260906035006 72 348 0.0 0.0 0.00 0.00 0.00 89 1014.8
20260906034006 72 348 0.0 0.0 0.00 0.00 0.00 88 1014.8
20260906033007 73 348 0.0 0.0 0.00 0.00 0.00 88 1014.8
20260906032506 73 348 0.0 0.0 0.00 0.00 0.00 88 1014.8
20260906032006 73 348 0.0 0.0 0.00 0.00 0.00 88 1014.8
20260906031506 73 348 0.0 0.0 0.00 0.00 0.00 88 1014.7
20260906030507 73 348 0.0 0.0 0.00 0.00 0.00 88 1014.5
20260906030006 73 348 0.0 0.0 0.00 0.00 0.00 88 1014.4
20260906025506 73 348 0.0 0.0 0.00 0.00 0.00 88 1014.5
20260906024506 73 348 0.0 0.9 0.00 0.00 0.00 87 1014.3
20260906024007 73 348 0.0 0.9 0.00 0.00 0.00 87 1014.3
20260906023506 73 348 0.0 0.0 0.00 0.00 0.00 87 1014.2
20260906022506 73 348 0.0 0.0 0.00 0.00 0.00 87 1014.1
20260906022007 73 348 0.0 0.9 0.00 0.00 0.00 87 1013.9
20260906021506 74 348 0.9 1.7 0.00 0.00 0.00 87 1013.8
20260906021007 74 348 0.0 0.0 0.00 0.00 0.00 87 1013.7
20260906020507 74 348 0.0 0.9 0.00 0.00 0.00 87 1013.5
20260906020006 74 348 0.9 1.7 0.00 0.00 0.00 87 1013.4
20260906015506 74 348 0.0 0.0 0.00 0.00 0.00 87 1013.4
20260906014006 74 348 0.0 0.0 0.00 0.00 0.00 87 1013.3
20260906013507 74 348 0.0 1.7 0.00 0.00 0.00 87 1013.2
20260906013007 74 348 0.0 0.0 0.00 0.00 0.00 86 1013.2
20260906012507 74 348 0.9 1.7 0.00 0.00 0.00 86 1013.1
20260906012007 74 348 0.0 2.6 0.00 0.00 0.00 86 1012.9
20260906011506 74 348 0.0 2.6 0.00 0.00 0.00 86 1012.8
20260906011006 75 348 0.0 1.7 0.00 0.00 0.00 86 1012.7
20260906010506 75 348 0.0 1.7 0.00 0.00 0.00 85 1012.7
20260906010006 75 348 0.0 0.0 0.00 0.00 0.00 85 1012.7
20260906005506 75 348 0.0 0.9 0.00 0.00 0.00 85 1012.7
20260906005006 75 348 0.0 0.0 0.00 0.00 0.00 84 1012.7
20260906004506 75 348 0.0 0.0 0.00 0.00 0.00 84 1012.7
20260906004007 75 348 0.0 0.0 0.00 0.00 0.00 84 1012.6
20260906003506 76 348 0.0 0.9 0.00 0.00 0.00 84 1012.5
20260906003006 76 348 0.0 1.7 0.00 0.00 0.00 83 1012.4
20260906002506 76 348 0.0 1.7 0.00 0.00 0.00 83 1012.4
20260906002006 76 344 0.0 0.0 0.00 0.00 0.00 82 1012.5
20260906001506 76 344 0.0 0.9 0.00 0.00 0.00 82 1012.5
20260906001007 76 344 0.0 0.9 0.00 0.00 0.00 82 1012.6
20260906000506 76 344 0.0 1.7 0.00 0.00 0.00 82 1012.7
20260906000006 76 344 0.0 0.9 0.00 0.00 0.00 82 1012.7
20260905235506 77 344 0.0 1.7 0.00 0.00 0.00 81 1012.6
20260905235007 77 344 0.0 1.7 0.00 0.00 0.00 81 1012.6
20260905234506 77 344 0.9 2.6 0.00 0.00 0.00 81 1012.6
20260905234006 77 163 0.9 6.1 0.00 0.00 0.00 81 1012.5
20260905233507 77 165 1.7 6.1 0.00 0.00 0.00 81 1012.4
20260905233006 77 69 0.0 2.6 0.00 0.00 0.00 81 1012.4
20260905232506 77 49 0.0 2.6 0.00 0.00 0.00 81 1012.4
20260905232006 77 46 1.7 2.6 0.00 0.00 0.00 80 1012.4
20260905231506 77 355 0.9 2.6 0.00 0.00 0.00 80 1012.3
20260905230006 77 35 1.7 4.3 0.00 0.00 0.00 80 1012.2
20260905225506 77 32 1.7 4.3 0.00 0.00 0.00 79 1012.1
20260905225006 77 94 0.9 2.6 0.00 0.00 0.00 79 1012.0
20260905224506 77 338 1.7 4.3 0.00 0.00 0.00 80 1011.9
20260905224006 77 358 0.9 4.3 0.00 0.00 0.00 80 1011.9
20260905223506 77 26 3.5 6.1 0.00 0.00 0.00 80 1011.9
20260905222006 78 66 2.6 5.2 0.00 0.00 0.00 79 1011.9
20260905221506 78 2 1.7 7.8 0.00 0.00 0.00 79 1011.9
20260905220506 78 11 1.7 4.3 0.00 0.00 0.00 79 1011.8
20260905220006 78 22 2.6 7.8 0.00 0.00 0.00 79 1011.8
20260905215506 78 65 2.6 7.8 0.00 0.00 0.00 79 1011.7
20260905215007 78 11 1.7 5.2 0.00 0.00 0.00 79 1011.8
20260905214506 78 19 1.7 7.0 0.00 0.00 0.00 80 1012.0
20260905214006 78 22 0.9 6.1 0.00 0.00 0.00 80 1011.9
20260905213506 78 46 2.6 6.1 0.00 0.00 0.00 80 1011.8
20260905213006 78 12 1.7 4.3 0.00 0.00 0.00 80 1011.9
20260905212506 78 336 1.7 2.6 0.00 0.00 0.00 80 1012.0
20260905212006 78 0 0.9 2.6 0.00 0.00 0.00 80 1012.2
20260905211006 78 352 1.7 4.3 0.00 0.00 0.00 79 1012.1
20260905210506 79 352 1.7 2.6 0.00 0.00 0.00 79 1012.1
20260905210006 79 343 1.7 2.6 0.00 0.00 0.00 79 1012.1
20260905205006 79 19 0.9 5.2 0.00 0.00 0.00 79 1012.3
20260905204506 79 76 1.7 2.6 0.00 0.00 0.00 79 1012.4
20260905204006 79 15 0.9 2.6 0.00 0.00 0.00 79 1012.5
20260905203006 79 336 1.7 4.3 0.00 0.00 0.00 79 1012.6
20260905202506 80 351 1.7 2.6 0.00 0.00 0.00 79 1012.6
20260905202006 80 0 1.7 2.6 0.00 0.00 0.00 79 1012.6
20260905201006 79 232 0.9 2.6 0.00 0.00 0.00 78 1012.9
20260905200006 79 193 0.0 2.6 0.00 0.00 0.00 79 1013.1
20260905195506 79 193 0.9 1.7 0.00 0.00 0.00 80 1013.2
20260905195007 79 194 0.0 1.7 0.00 0.00 0.00 80 1013.2
20260905194006 79 166 0.9 2.6 0.00 0.00 0.00 80 1013.3
20260905193506 79 116 0.9 2.6 0.00 0.00 0.00 80 1013.4
20260905193006 79 116 0.9 1.7 0.00 0.00 0.00 80 1013.5
20260905192506 79 116 0.9 2.6 0.00 0.00 0.00 79 1013.4
20260905192006 79 115 0.9 1.7 0.00 0.00 0.00 80 1013.3
20260905191506 79 121 0.0 1.7 0.00 0.00 0.00 79 1013.4
20260905191006 79 121 0.9 2.6 0.00 0.00 0.00 79 1013.5
20260905190506 79 121 0.9 4.3 0.00 0.00 0.00 79 1013.5
20260905190006 79 161 0.9 4.3 0.00 0.00 0.00 80 1013.5
20260905185506 79 111 0.9 2.6 0.00 0.00 0.00 81 1013.4
20260905185007 79 110 0.0 2.6 0.00 0.00 0.00 81 1013.4
20260905184006 78 303 0.9 2.6 0.00 0.00 0.00 81 1013.6
20260905183506 78 344 0.9 2.6 0.00 0.00 0.00 83 1013.5
20260905183006 78 34 1.7 2.6 0.00 0.00 0.00 82 1013.4
20260905182506 77 5 0.0 2.6 0.00 0.00 0.00 84 1013.6
20260905182006 77 5 0.0 0.9 0.00 0.00 0.00 84 1013.8
20260905181506 76 5 0.9 1.7 0.00 0.00 0.00 85 1013.9
20260905181006 76 15 0.0 1.7 0.00 0.00 0.00 85 1013.9
20260905180506 76 31 0.0 1.7 0.00 0.00 0.00 85 1014.0